Location: Fresville
(49.4386°N, 1.3558°W)
Time: 22:36:40
(UTC+00:00)

Daily predictions for brighter satellites

Satellite Brightness Start Highest point End
(mag) Time Altitude Azimuth Time Altitude Azimuth Time Altitude Azimuth
Meteor 1-21 4.2 18:23:40 10° N 18:29:23 80° ENE 18:34:59 10° SSE
Cosmos 2184 Rocket 4.3 18:23:24 10° SSE 18:29:25 48° E 18:35:24 10° NNE
Cosmos 1707 2.8 18:26:31 10° N 18:30:23 56° ENE 18:34:14 10° SSE
Lacrosse 4 Rocket 3.3 18:27:49 10° WSW 18:31:23 29° NW 18:35:00 10° NNE
COSMO-SKYMED 1 2.7 18:27:35 10° NNE 18:31:57 84° WNW 18:36:18 10° SSW
HJ-1C 3.7 18:28:56 10° SE 18:32:03 43° ENE 18:35:11 10° N
CZ-4B R/B 4.2 18:29:19 10° S 18:34:38 52° W 18:40:05 10° NNW
Cosmos 1626 3.4 18:36:31 10° NNE 18:39:28 22° ENE 18:42:24 10° ESE
KORONAS-FOTON 4.3 18:38:53 10° N 18:42:24 36° ENE 18:45:55 10° SE
Cosmos 1356 Rocket 4.3 18:39:16 10° SSW 18:43:29 56° WNW 18:47:44 10° N
OBJECT-B 2.2 18:43:09 10° ESE 18:45:30 20° ENE 18:47:53 10° NNE
Cosmos 1340 3.1 18:43:12 10° NNW 18:46:58 67° W 18:50:42 10° S
In-Cosmos 22 4.0 18:42:40 10° N 18:47:59 79° ENE 18:53:17 10° SSE
Cosmos 1733 Rocket 3.5 18:43:47 10° SSW 18:48:04 65° WNW 18:52:24 10° N
Geosat 4.3 18:43:54 10° NE 18:48:43 44° ESE 18:53:30 10° S
Cosmos 2154 Rocket 4.3 18:42:43 10° SSE 18:48:43 47° E 18:54:45 10° NNE
Cosmos 1503 Rocket 4.0 18:44:37 10° S 18:49:45 64° ESE 18:54:53 10° NNE
Cosmos 1184 Rocket 4.0 18:48:23 10° NNE 18:51:01 23° ENE 18:53:05 13° ESE
MetOp-A 4.3 18:46:07 10° SE 18:51:17 53° ENE 18:56:29 10° N
USA 305 3.7 18:48:08 10° WNW 18:52:12 44° N 18:56:04 11° ENE
H-2A R/B 2.0 18:48:27 10° NNE 18:52:38 59° ESE 18:56:43 10° S
SL-08 RB Rocket 3.8 18:50:07 10° S 18:54:35 78° WSW 18:59:05 10° NNW
Cosmos 1782 Rocket 4.2 18:53:28 10° SSE 18:57:29 35° E 19:01:30 10° NNE
IRAS Rocket 4.5 18:54:08 10° NNE 18:59:47 77° WNW 19:05:23 10° SSW
Nadezhda 3 Rocket 4.0 18:54:32 10° N 19:00:40 64° ENE 19:06:47 10° SSE
ISS -3.5 18:59:32 10° W 19:02:53 64° N 19:05:32 15° ENE
COSMOS 2455 3.4 18:56:57 10° NW 19:02:55 61° WSW 19:08:50 10° SSE
Cosmos 1346 Rocket 3.0 19:00:21 10° N 19:04:16 48° ENE 19:08:11 10° SSE
CSL-04 Rocket 3.7 19:00:32 10° SSE 19:05:50 64° ENE 19:11:14 10° N
Cosmos 1354 Rocket 3.9 19:01:09 10° SSW 19:06:22 74° ESE 19:11:37 10° NNE
USA 307 3.6 19:02:53 10° WNW 19:06:59 45° N 19:10:15 15° ENE
DMSP B5D1-3 4.4 19:02:18 10° NNE 19:07:25 74° ESE 19:12:31 10° S
Cosmos 1025 Rocket 3.8 19:07:24 10° N 19:11:19 32° ENE 19:13:45 18° ESE
H-2A R/B 4.4 19:12:25 10° SSW 19:16:30 35° W 19:20:40 10° NNW
Okean-O 2.8 19:14:07 10° S 19:18:32 77° WSW 19:23:00 10° NNW
Cosmos 1238 Rocket 3.8 19:13:29 10° S 19:19:48 89° W 19:25:18 10° N
USA 306 3.5 19:16:12 10° WNW 19:20:19 47° N 19:22:58 20° ENE
Cosmos 1975 Rocket 3.0 19:18:58 10° N 19:23:23 65° ENE 19:27:49 10° SSE
SeaSat 1 2.5 19:22:15 18° SE 19:25:53 64° NE 19:30:48 10° NNW
Cosmos 2297 Rocket 4.2 19:22:50 10° N 19:25:58 15° NNE 19:28:41 11° ENE
USA 281 4.5 19:21:42 10° NE 19:25:02 18° E 19:25:02 18° E
USA 308 3.5 19:22:17 10° WNW 19:26:26 47° N 19:28:52 22° ENE
Cosmos 2074 Rocket 4.4 19:21:13 10° SSW 19:27:26 68° WNW 19:33:44 10° N
Cosmos 773 Rocket 4.3 19:22:30 10° NNW 19:27:44 68° WSW 19:32:58 10° S
ATLAS CENTAUR R/B 3.1 19:25:20 10° NW 19:29:39 37° WSW 19:34:05 10° S
Cosmos 1300 Rocket 4.0 19:29:52 18° SSE 19:32:35 37° E 19:36:37 10° NNE
Resurs 01 Rocket 2.7 19:33:41 24° ENE 19:34:19 25° ENE 19:37:55 10° N
Meteor 1-24 Rocket 4.1 19:31:00 10° N 19:36:00 39° ENE 19:38:11 27° ESE
CZ-4B R/B 1.4 19:33:23 10° N 19:36:27 72° WNW 19:39:32 10° SSW
Lacrosse 5 rocket 2.6 19:32:48 10° WNW 19:37:03 39° SW 19:40:05 16° SSE
Cosmos 1441 Rocket 3.7 19:33:42 10° N 19:37:13 36° ENE 19:37:35 35° E
IGS 5A 4.4 19:37:05 28° ENE 19:37:33 29° ENE 19:41:09 10° N
Cosmos 1943 Rocket 2.7 19:32:17 10° SW 19:37:49 63° WNW 19:43:26 10° NNE
Cosmos 2341 Rocket 4.1 19:32:30 10° SSE 19:38:38 56° E 19:44:52 10° NNE
Cosmos 2366 rocket 4.4 19:35:45 16° SSE 19:40:10 38° E 19:45:46 10° NNE
USA 186 1.6 19:39:12 32° S 19:40:27 83° WSW 19:43:35 10° NNW
SL-27 R/B 3.4 19:37:44 10° N 19:40:24 28° NE 19:40:24 28° NE
Resurs 1-3 3.9 19:39:52 32° ESE 19:41:25 47° ENE 19:45:39 10° N
USA 276 2.0 19:38:50 10° W 19:41:59 78° N 19:42:32 56° ENE
GENESIS II 4.1 19:38:46 10° SW 19:42:36 90° SE 19:46:15 12° NE
CZ-2C R/B 4.4 19:38:45 10° N 19:43:42 35° WNW 19:48:43 10° SW
Cosmos 1833 4.1 19:39:03 10° NNW 19:44:43 77° ENE 19:47:57 26° SE
ERBS 4.3 19:44:57 10° NW 19:47:34 21° N 19:48:55 17° NNE
Cosmos 2227 Rocket 4.1 19:45:04 10° N 19:48:25 16° NNE 19:50:29 13° ENE
APEX 3.5 19:44:16 10° NNW 19:49:18 70° ENE 19:50:35 43° SE
CZ-4 R/B 4.0 19:46:29 10° SW 19:49:21 20° W 19:52:14 10° NW
Cosmos 2218 Rocket 4.2 19:45:03 15° SSE 19:49:50 46° E 19:55:43 10° NNE
Cosmos 1315 Rocket 2.7 19:46:04 10° S 19:50:02 71° E 19:54:04 10° NNE
Cosmos 2369 Rocket 2.1 19:44:23 10° SSW 19:50:03 85° ESE 19:55:44 10° NNE
SL-14 R/B 3.2 19:51:45 10° N 19:55:45 88° E 19:57:12 38° S
SJ-6B 3.0 19:53:28 23° S 19:55:58 77° WSW 20:00:05 10° NNW
USA 215 3.6 19:52:49 22° SSE 19:57:08 59° SW 20:03:38 10° WNW
MOS 1 4.3 19:54:16 29° SE 19:57:16 67° ENE 20:02:55 10° N
Ariane Rocket 3.1 19:56:38 38° SE 19:58:19 57° ENE 20:03:20 10° N
Cosmos 1805 3.5 19:56:38 10° SSW 20:00:30 66° WNW 20:04:22 10° N
IRS-1A Rocket 4.3 19:59:04 30° SE 20:02:04 70° ENE 20:07:58 10° NNW
EO 1 Delta rocket 3.9 20:02:47 33° SSE 20:05:00 78° ENE 20:10:41 10° N
SJ 16-02 1.4 20:00:36 10° SSW 20:05:01 81° WNW 20:09:30 10° NNE
CENTAUR R/B 4.1 20:00:04 10° S 20:09:37 17° ENE 20:11:19 10° NE
Cosmos 864 Rocket 4.5 20:03:58 20° SSE 20:08:20 59° E 20:14:25 10° NNE
Cosmos 1538 Rocket 4.4 20:04:04 10° NNW 20:09:22 62° WSW 20:12:38 23° S
Cosmos 1626 3.9 20:11:25 10° NNW 20:14:43 31° W 20:17:34 13° SSW
Meteor 1-15 Rocket 4.2 20:09:27 10° SSW 20:15:02 84° WNW 20:20:41 10° N
Helios 1A Rocket 2.9 20:14:54 55° S 20:15:42 76° WSW 20:19:48 10° NNW
OBJECT-B 2.8 20:16:03 19° SW 20:17:27 27° W 20:20:13 10° NW
Cosmos 1656 Rocket 3.6 20:12:24 10° SSW 20:17:59 85° WNW 20:23:32 10° NNE
Okean 2 Rocket 2.9 20:18:26 74° E 20:18:26 74° E 20:22:51 10° NNE
Cosmos 1900 4.3 20:16:34 10° NNW 20:21:27 60° NE 20:21:47 58° ENE
Cosmos 2263 4.2 20:16:09 10° SSW 20:21:45 78° WNW 20:27:24 10° NNE
Cosmos 1726 4.4 20:26:30 16° NNE 20:26:30 16° NNE 20:27:17 10° NNE
Iridium 4 Rocket 4.4 20:21:15 10° N 20:23:35 26° NNE 20:23:35 26° NNE
Cosmos 1766 4.0 20:25:45 25° SW 20:27:46 52° WNW 20:31:37 10° N
Meteor 1-22 Rocket 4.1 20:25:16 33° S 20:27:54 79° E 20:33:46 10° NNE
Meteor 2-5 Rocket 3.9 20:23:29 10° NNW 20:29:00 71° W 20:31:28 34° S
Sich 1 Rocket 3.9 20:25:53 18° SSW 20:29:08 65° WNW 20:33:39 10° N
NOSS 3-2 (A) 3.2 20:26:20 10° SSW 20:31:48 61° SE 20:38:10 10° NE
SPOT 3 Rocket 3.5 20:32:06 64° ENE 20:32:11 64° ENE 20:37:18 10° N
USA 305 3.1 20:28:14 10° WNW 20:32:05 69° NNW 20:32:05 69° NNW
SPOT 5 4.3 20:34:13 29° NE 20:34:13 29° NE 20:38:00 10° N
Cosmos 1821 Rocket 4.3 20:36:26 46° ENE 20:36:26 46° ENE 20:41:57 10° NNE
Atlas Centaur 2 4.5 20:32:47 10° SW 20:38:16 19° S 20:38:39 19° S
ISS -1.9 20:36:35 10° WNW 20:38:31 31° WNW 20:38:31 31° WNW
SL-8 Rocket 4.3 20:35:45 10° SSW 20:41:59 68° WNW 20:48:20 10° N
Cosmos 1536 Rocket 3.8 20:38:10 10° NNW 20:42:26 67° W 20:42:26 67° W
Terra 3.6 20:46:31 20° NNE 20:46:31 20° NNE 20:48:43 10° N
Meteor 2-10 4.2 20:42:26 27° SSW 20:45:37 76° WNW 20:51:08 10° N
USA 307 3.6 20:42:59 10° WNW 20:46:19 53° NW 20:46:19 53° NW
BREEZE-M R/B 3.2 20:46:45 10° W 20:49:18 51° W 20:49:18 51° W
Cosmos 923 Rocket 4.3 20:45:54 10° NNW 20:51:01 60° WSW 20:51:29 58° SW
BREEZE-M DEB (TANK) 4.4 20:47:38 10° W 20:50:51 34° W 20:50:51 34° W
Cosmos 2151 Rocket 4.1 20:53:02 58° NW 20:53:02 58° NW 20:57:01 10° N
Spot 2 Rocket 4.2 20:54:11 42° NNE 20:54:11 42° NNE 20:57:54 10° N
SL-08 R/B 4.3 20:55:55 77° E 20:55:55 77° E 21:02:03 10° NNE
Cosmos 1727 Rocket 4.0 20:50:52 10° NNW 20:57:12 78° W 20:58:28 59° SSW
USA 306 4.1 20:56:14 10° WNW 20:59:00 40° WNW 20:59:00 40° WNW
SeaSat 1 4.4 21:02:02 19° SW 21:03:46 23° WSW 21:07:39 10° NW
Cosmos 1680 Rocket 3.8 20:59:12 10° NNW 21:04:16 61° W 21:04:16 61° W
USA 308 4.3 21:02:20 10° WNW 21:04:55 36° WNW 21:04:55 36° WNW
SPOT 1/Viking Rocket 3.8 21:08:48 67° NW 21:08:48 67° NW 21:13:23 10° NNW
Resurs 01 Rocket 2.8 21:11:15 39° WNW 21:11:15 39° WNW 21:14:50 10° NNW
Cosmos 2297 Rocket 2.8 21:05:54 10° NNW 21:10:29 46° NNE 21:10:29 46° NNE
USA 281 3.0 21:04:50 10° NNE 21:11:27 84° ESE 21:11:51 79° S
ERS-1 Rocket 4.1 21:19:17 37° N 21:19:17 37° N 21:22:26 10° N
ARIANE 5 R/B 4.5 21:23:19 26° N 21:23:19 26° N 21:25:19 10° N
Cosmos 2227 Rocket 3.1 21:28:14 10° NNW 21:32:18 42° N 21:32:18 42° N
Cosmos 2369 Rocket 4.4 21:30:22 10° W 21:34:49 23° NW 21:39:15 10° N
SJ 16-02 4.4 21:42:09 10° WNW 21:44:22 14° NW 21:46:38 10° NNW
Cosmos 2263 Rocket 4.1 21:45:20 10° N 21:48:36 21° NNE 21:48:36 21° NNE
CENTAUR R/B 3.1 21:56:39 55° N 21:56:39 55° N 22:02:48 10° NE
Cosmos 2219 4.5 22:01:57 10° NNW 22:05:18 37° NNW 22:05:18 37° NNW
USA 238 DEB 4.5 22:15:00 44° NNE 22:15:00 44° NNE 22:20:02 10° NE
Terra 4.2 22:25:24 21° NNW 22:25:24 21° NNW 22:27:02 10° NNW
Cosmos 2297 Rocket 4.4 22:50:20 10° NW 22:52:17 20° WNW 22:52:17 20° WNW
Cosmos 2263 Rocket 4.4 23:28:42 10° NNW 23:30:16 19° NNW 23:30:16 19° NNW
CENTAUR R/B 4.3 23:43:40 18° WNW 23:47:37 31° NNW 23:54:25 10° NE
